Wind_Speed
19 19 19 19 19 18 19 20 19 17 15 16 15 15 15 14 12 11 11 10 11 12 12 12 12 11 11 10 10 9 8 8 7 7 8 8 7 8 9 9 9 9 9 10 11 11 11 11 11
18 19 19 20 19 18 20 21 19 17 16 15 15 14 14 13 12 11 11 11 11 11 11 11 11 11 10 10 10 10 9 8 8 8 8 8 8 7 7 8 8 8 9 9 9 10 10 10 10
16 18 19 21 20 20 22 21 19 18 17 16 15 15 13 12 12 11 11 11 11 11 11 11 11 10 10 10 10 10 10 9 8 7 7 8 7 7 8 8 9 9 9 8 8 8 8 9 10
15 17 19 20 20 20 22 22 20 19 18 17 16 15 14 13 13 12 12 12 12 12 11 11 11 11 10 10 10 10 10 9 8 8 7 7 7 7 8 9 9 9 8 8 8 8 9 9 9
14 17 19 19 19 20 21 22 21 20 19 18 17 16 15 15 14 13 12 12 12 12 11 11 11 11 10 10 10 10 10 10 9 8 7 7 7 7 8 7 8 8 8 8 8 9 9 9 9
14 17 18 18 18 19 20 21 20 19 19 19 18 17 15 15 14 14 13 13 12 11 11 11 11 10 10 9 9 9 9 9 8 8 7 7 7 8 7 7 7 7 7 7 7 8 8 9 9
13 14 15 17 17 18 19 19 19 19 19 19 18 17 16 16 15 14 14 13 12 12 12 11 11 10 9 9 9 8 8 8 7 7 7 6 6 6 6 6 6 6 6 6 7 7 8 8 8
13 13 14 15 16 17 17 17 17 18 19 19 19 18 17 17 15 14 14 14 13 12 12 11 10 10 9 9 9 8 8 7 7 7 6 6 6 5 5 5 5 5 5 6 6 6 6 7 7
11 11 12 14 14 15 15 16 17 18 19 20 20 19 19 18 17 15 15 14 14 13 12 11 11 10 9 9 8 8 7 7 6 6 6 5 5 5 5 4 4 4 4 5 5 5 6 6 6
10 10 11 12 13 13 14 15 17 18 19 19 20 19 18 18 18 17 16 15 15 15 14 13 12 11 10 10 9 8 8 7 6 6 5 4 4 4 4 3 3 3 4 4 4 4 4 4 4
8 8 9 10 12 14 15 16 17 18 19 19 19 18 17 18 18 17 17 16 15 15 15 14 13 12 11 10 10 9 8 7 6 6 4 4 3 3 2 3 3 3 3 3 4 4 3 4 4
6 6 8 10 13 15 16 16 17 18 18 18 19 18 17 17 17 18 17 16 15 15 14 14 14 13 12 11 9 8 8 7 7 6 4 4 3 3 2 2 2 2 3 3 3 3 3 3 3
4 5 7 9 12 14 15 17 16 16 17 17 18 18 18 17 17 17 17 16 16 15 14 14 14 14 13 12 11 10 8 7 7 6 5 4 4 3 2 2 2 2 2 2 2 2 3 3 3
3 3 5 7 9 11 13 15 15 16 16 16 17 18 18 17 16 16 16 16 15 15 15 14 14 13 13 12 11 10 9 8 7 6 5 4 3 3 2 2 1 1 1 1 1 2 2 3 3
4 1 3 4 7 9 11 12 13 14 15 15 16 17 17 17 16 16 16 15 15 14 14 15 14 13 13 12 11 11 10 8 7 6 5 4 3 2 1 0 0 1 1 2 2 2 3 3 4
4 2 1 2 5 7 8 10 12 12 13 14 15 16 16 16 15 15 16 15 15 14 14 14 14 13 12 12 11 11 10 9 7 5 5 4 4 3 2 1 1 1 1 1 2 2 3 4 5
6 4 2 1 3 4 6 9 10 11 12 13 14 14 15 15 15 15 15 14 14 14 14 14 14 13 13 12 12 11 10 9 7 6 5 4 3 3 3 2 1 0 1 2 2 3 4 5 6
6 6 4 4 4 5 5 7 9 9 11 12 12 13 13 13 13 13 13 13 13 13 13 13 13 13 13 13 13 12 10 9 8 7 6 5 3 3 3 2 1 1 2 3 3 4 4 4 5
8 7 5 4 5 6 5 6 8 8 9 10 12 12 12 12 12 12 12 12 12 12 12 12 12 13 13 13 13 12 11 10 9 8 7 6 4 3 3 3 2 2 2 3 3 4 3 4 5
11 8 6 5 6 6 6 6 6 8 9 9 10 10 11 12 11 11 11 11 11 12 12 13 13 13 13 12 12 12 11 10 9 8 7 6 4 4 4 3 3 3 3 2 3 4 5 5 5
14 11 8 8 8 8 7 7 8 8 8 7 8 9 10 11 10 10 11 10 10 11 12 12 12 12 12 12 12 12 12 10 9 8 7 7 5 5 4 4 4 3 3 3 3 4 5 6 6
16 13 11 11 10 10 10 8 6 6 6 6 7 8 9 10 9 9 10 10 10 11 12 12 12 12 12 12 11 12 12 11 10 9 8 7 6 5 5 5 5 4 4 4 4 4 5 6 7
18 17 16 15 14 13 12 11 8 6 5 4 6 6 7 8 8 8 9 9 9 10 10 11 11 11 11 11 11 11 11 10 10 9 9 7 7 6 6 5 5 4 5 5 5 6 6 7 7
20 20 19 18 16 14 12 12 9 7 6 4 5 5 6 7 7 8 8 8 9 9 10 10 11 11 10 10 10 10 10 10 10 10 9 8 7 7 7 7 6 6 6 6 7 7 8 8 9
23 21 19 18 16 13 12 12 10 8 6 5 4 4 5 6 6 6 7 8 9 9 9 10 10 10 10 9 9 9 9 10 10 10 9 8 7 7 7 7 7 7 7 7 8 8 9 9 9
23 21 20 18 15 13 13 13 10 8 7 5 5 5 5 5 5 5 6 7 8 9 9 9 9 9 9 9 9 9 9 9 9 9 9 9 8 8 8 8 8 9 9 9 9 9 10 10 10
24 23 20 18 17 15 14 13 10 8 7 6 6 5 5 4 5 5 5 6 8 8 9 9 9 9 10 10 9 9 9 9 9 9 9 9 9 9 9 10 10 10 10 10 11 10 11 11 11
26 24 23 22 20 18 16 14 12 9 7 7 7 8 7 5 5 4 5 6 7 8 8 9 8 8 10 10 9 9 10 10 9 9 9 9 9 10 10 11 11 11 12 12 12 12 11 11 11
28 28 27 25 23 20 19 16 12 10 11 10 8 8 7 5 5 5 5 6 6 7 8 8 9 9 9 9 9 9 10 10 10 10 10 11 11 11 11 12 12 13 13 14 13 13 12 13 13
28 28 28 28 25 23 22 19 14 13 13 11 10 9 8 7 6 6 6 7 7 7 7 8 9 9 9 9 9 10 10 10 11 11 12 12 12 12 13 13 14 14 14 14 13 14 13 13 13
Wind_Direction
66 61 54 52 48 47 51 53 51 48 45 43 41 40 39 42 46 47 50 53 57 58 58 58 59 57 54 53 53 58 60 71 80 85 91 94 100 103 101 105 110 114 118 117 110 112 115 116 115
66 61 53 51 46 47 50 52 50 47 46 44 42 41 41 41 45 48 50 54 58 59 58 59 59 56 55 55 55 56 55 67 78 84 90 93 98 104 105 107 113 114 117 120 116 114 117 116 114
67 60 51 46 46 44 47 50 48 45 45 45 44 44 42 42 45 48 51 56 59 60 60 60 59 58 60 61 62 63 61 64 69 78 85 90 93 101 107 114 112 116 116 116 120 119 119 117 116
66 61 50 43 44 44 46 48 47 43 46 45 44 44 43 45 47 49 54 58 58 59 59 59 58 58 63 66 68 68 67 67 71 76 86 91 94 101 113 118 111 112 116 116 118 118 119 118 118
60 57 47 41 43 44 45 46 44 43 42 44 44 44 44 46 47 48 54 56 58 59 59 60 59 60 64 65 67 68 68 69 71 75 80 90 100 107 114 113 107 110 114 115 116 117 118 118 121
58 49 41 40 40 42 45 46 45 41 40 42 44 43 45 48 48 47 51 53 56 59 59 60 58 59 60 61 65 65 67 69 73 79 82 86 91 101 106 106 103 103 108 115 119 119 119 118 120
63 53 40 40 39 41 43 45 46 43 39 40 43 43 44 49 50 48 50 54 56 58 59 59 55 56 59 62 67 65 65 70 74 80 86 88 91 95 100 105 108 111 113 117 122 122 121 118 120
65 53 44 39 38 41 43 44 45 45 40 40 41 41 43 48 53 53 51 53 54 57 59 59 58 59 62 63 65 64 65 69 75 79 87 92 94 95 99 105 110 114 117 121 127 128 126 125 123
62 55 46 38 33 40 44 43 43 44 40 40 41 41 43 48 52 56 55 54 55 58 60 60 60 62 64 66 66 64 65 70 77 80 84 90 95 98 99 101 110 119 123 129 135 136 133 132 131
68 63 52 42 35 42 45 44 44 43 40 40 41 41 44 48 52 55 56 56 56 57 60 59 58 60 65 68 67 67 67 69 72 78 84 91 99 103 101 104 111 122 133 136 138 137 140 142 139
75 71 60 50 41 44 49 49 47 44 42 41 42 43 46 48 51 55 56 56 57 56 57 58 57 57 60 62 64 65 65 67 69 70 69 81 88 98 105 106 107 120 136 145 148 149 149 154 149
88 68 59 51 47 47 50 50 48 46 43 43 43 43 46 48 51 54 55 56 58 59 58 58 57 57 58 58 59 59 62 64 62 61 62 72 80 94 103 104 117 126 138 151 160 165 172 173 168
97 78 66 50 46 46 46 50 49 46 43 43 41 41 41 45 49 51 51 52 56 60 59 59 59 60 60 59 58 60 61 60 59 61 63 63 71 91 112 130 120 127 133 138 156 175 186 189 192
128 86 66 52 45 47 46 47 45 42 40 40 39 40 41 43 48 48 47 48 53 56 56 57 57 55 55 58 59 57 56 60 60 62 67 64 69 87 106 119 124 138 163 167 189 206 206 217 215
151 101 71 55 54 50 47 44 46 42 40 39 39 38 39 42 45 45 45 47 51 52 54 55 54 51 50 50 51 49 49 48 54 57 59 58 64 78 90 148 164 192 204 208 224 230 234 241 239
173 184 121 53 49 49 38 35 38 39 39 37 36 36 37 40 44 44 44 46 47 48 50 52 51 47 43 42 41 47 49 43 45 48 48 47 50 52 54 56 103 138 210 227 238 247 258 256 250
189 211 228 271 4 15 29 31 30 29 31 33 34 35 35 39 42 41 42 43 44 46 48 47 45 44 40 38 36 36 38 37 41 45 39 35 40 42 36 27 50 317 277 272 270 270 269 262 255
190 202 222 246 287 316 353 19 24 25 26 30 32 31 33 36 39 39 42 42 43 45 47 45 42 42 41 38 36 36 35 36 37 39 32 24 24 36 28 11 339 302 287 272 272 286 279 266 258
189 195 220 234 270 299 329 347 4 15 18 28 28 27 30 33 37 39 39 39 42 43 43 41 38 38 39 39 37 36 35 34 34 37 37 30 32 37 20 19 12 337 310 278 269 278 283 271 266
195 202 228 245 248 280 300 314 332 347 360 12 19 23 28 29 32 35 36 37 40 41 40 38 36 35 35 34 33 35 35 34 31 29 32 25 19 13 12 7 360 4 355 323 297 286 279 277 274
195 201 225 242 241 252 269 282 310 338 344 2 15 17 27 28 28 31 34 35 39 39 35 33 32 33 32 30 29 30 33 32 31 33 31 28 20 11 15 17 18 22 8 355 324 310 294 282 278
201 205 222 230 230 243 259 269 297 332 337 354 14 16 23 24 26 27 30 32 34 34 30 29 30 30 28 27 27 26 30 31 29 32 29 27 26 26 25 20 24 18 3 347 334 322 312 298 287
210 214 218 220 231 243 258 269 277 289 315 339 1 10 18 17 22 24 26 28 28 28 27 27 25 24 24 25 25 24 27 27 26 27 23 25 27 30 27 18 14 8 359 349 338 328 320 314 305
216 218 218 222 227 236 253 262 266 274 302 330 352 356 4 10 13 19 22 22 21 21 23 22 22 21 21 21 22 24 23 22 21 23 22 20 25 27 22 18 16 9 356 344 337 327 319 312 306
217 220 218 219 224 234 245 255 263 271 290 318 335 346 351 359 5 8 17 21 20 18 19 18 18 19 19 17 19 21 20 19 19 18 17 15 19 20 20 19 14 6 355 343 334 326 320 316 310
220 220 223 224 227 231 239 250 258 266 278 295 309 331 336 354 3 357 7 17 16 15 15 13 13 15 17 15 15 16 18 16 13 12 11 11 11 12 12 8 2 357 350 342 336 330 324 322 317
217 218 224 227 228 234 243 249 253 259 271 286 299 315 320 334 352 353 356 2 8 8 9 8 8 12 13 13 12 11 11 10 8 7 6 7 4 1 357 353 352 350 346 340 335 332 328 325 321
218 218 223 225 228 237 243 250 254 256 264 282 292 309 308 311 320 332 346 351 354 358 359 0 2 2 4 6 7 6 6 5 2 359 358 358 356 352 347 343 344 344 341 337 334 330 330 328 323
217 218 221 225 229 236 243 246 245 257 265 271 273 288 290 299 306 323 330 334 338 344 349 355 358 357 357 357 359 359 360 359 356 351 347 345 344 341 339 337 336 336 337 336 332 328 327 324 321
216 219 220 223 227 233 241 245 248 257 262 266 276 282 279 289 303 318 324 322 324 331 338 343 347 349 352 355 358 358 354 353 352 349 345 341 339 337 335 334 333 333 332 330 327 328 326 324 322
Height
5915 5914 5914 5914 5913 5911 5909 5908 5907 5905 5904 5902 5900 5900 5899 5898 5897 5897 5894 5891 5890 5890 5889 5889 5888 5888 5887 5886 5886 5885 5885 5884 5884 5884 5883 5883 5883 5883 5883 5883 5883 5883 5883 5883 5884 5885 5885 5886 5886
5917 5917 5917 5916 5914 5912 5912 5910 5909 5908 5906 5904 5903 5902 5900 5898 5897 5896 5894 5892 5891 5891 5891 5890 5890 5889 5889 5888 5887 5887 5886 5886 5886 5885 5885 5885 5885 5884 5885 5885 5884 5884 5885 5885 5885 5886 5887 5887 5887
5920 5919 5919 5917 5916 5915 5914 5912 5911 5910 5908 5907 5906 5904 5902 5900 5898 5897 5895 5894 5893 5893 5892 5892 5891 5891 5890 5889 5889 5888 5888 5887 5887 5887 5886 5886 5886 5886 5886 5886 5885 5886 5886 5887 5887 5888 5888 5888 5889
5922 5921 5921 5919 5918 5917 5915 5914 5913 5912 5910 5909 5907 5905 5904 5901 5899 5898 5896 5895 5894 5894 5894 5893 5892 5892 5892 5891 5890 5890 5889 5889 5889 5888 5888 5888 5888 5887 5887 5887 5887 5887 5887 5888 5888 5889 5889 5890 5890
5924 5922 5922 5921 5920 5919 5917 5916 5915 5914 5912 5910 5909 5907 5905 5903 5900 5899 5898 5897 5896 5896 5895 5894 5894 5893 5893 5893 5892 5891 5891 5890 5890 5890 5890 5889 5889 5889 5889 5889 5889 5889 5889 5890 5890 5890 5891 5891 5892
5927 5924 5924 5923 5922 5921 5920 5919 5918 5916 5914 5912 5910 5909 5907 5905 5902 5900 5899 5898 5897 5897 5897 5896 5895 5895 5894 5894 5893 5893 5892 5892 5892 5891 5891 5891 5890 5890 5890 5890 5890 5891 5891 5891 5891 5892 5892 5892 5893
5929 5927 5926 5926 5925 5924 5923 5922 5921 5918 5916 5914 5912 5910 5909 5906 5904 5902 5901 5900 5899 5898 5898 5897 5896 5896 5895 5895 5894 5894 5894 5893 5893 5892 5892 5892 5892 5891 5891 5891 5892 5892 5892 5892 5893 5893 5893 5894 5894
5931 5930 5929 5928 5928 5926 5925 5925 5923 5921 5919 5916 5914 5912 5910 5908 5906 5904 5903 5902 5901 5900 5899 5898 5898 5897 5896 5896 5895 5895 5895 5894 5894 5893 5893 5893 5893 5893 5893 5893 5893 5893 5893 5893 5893 5894 5894 5894 5895
5933 5933 5931 5931 5930 5929 5927 5926 5925 5923 5921 5918 5916 5914 5912 5910 5908 5907 5905 5904 5903 5902 5900 5899 5898 5898 5897 5896 5896 5896 5896 5895 5895 5894 5894 5894 5894 5894 5894 5894 5894 5894 5894 5894 5894 5895 5895 5895 5895
5934 5934 5934 5934 5933 5931 5929 5928 5926 5924 5922 5920 5918 5916 5914 5912 5911 5909 5907 5906 5904 5903 5902 5901 5900 5899 5898 5897 5897 5896 5896 5896 5895 5895 5895 5894 5894 5895 5895 5895 5895 5895 5895 5895 5895 5896 5896 5896 5896
5936 5935 5935 5934 5934 5933 5932 5930 5928 5927 5925 5923 5921 5919 5917 5915 5913 5912 5910 5908 5906 5905 5904 5903 5901 5900 5900 5899 5898 5898 5897 5897 5896 5895 5895 5895 5895 5895 5895 5895 5895 5895 5895 5895 5896 5896 5896 5897 5897
5937 5937 5936 5935 5935 5935 5933 5932 5931 5929 5928 5926 5924 5922 5919 5917 5915 5913 5912 5911 5909 5907 5906 5905 5903 5902 5901 5900 5899 5898 5898 5897 5897 5896 5895 5895 5895 5895 5895 5895 5896 5896 5895 5896 5896 5896 5897 5897 5897
5938 5938 5937 5937 5936 5936 5935 5934 5933 5932 5930 5928 5926 5924 5921 5919 5917 5915 5914 5912 5911 5910 5908 5906 5905 5904 5903 5901 5900 5899 5899 5898 5898 5897 5896 5896 5896 5895 5895 5895 5896 5896 5895 5895 5896 5896 5896 5897 5897
5939 5939 5939 5938 5938 5938 5937 5936 5935 5934 5932 5930 5928 5926 5924 5921 5919 5917 5915 5914 5912 5911 5909 5907 5906 5905 5904 5903 5902 5900 5900 5899 5898 5898 5897 5896 5896 5896 5896 5896 5896 5896 5896 5895 5896 5896 5896 5896 5896
5940 5940 5940 5940 5940 5940 5940 5939 5937 5935 5934 5932 5930 5928 5925 5923 5921 5919 5917 5916 5914 5912 5910 5909 5907 5906 5905 5903 5902 5901 5900 5899 5899 5898 5897 5897 5896 5896 5896 5896 5896 5895 5895 5895 5895 5895 5895 5896 5896
5940 5941 5941 5941 5940 5941 5942 5940 5938 5937 5935 5934 5932 5929 5927 5925 5923 5921 5919 5917 5916 5914 5912 5910 5909 5907 5906 5904 5903 5902 5901 5899 5899 5898 5898 5897 5896 5896 5895 5895 5895 5895 5895 5895 5895 5895 5895 5895 5895
5939 5940 5940 5941 5940 5941 5941 5940 5939 5938 5936 5935 5933 5931 5929 5927 5925 5923 5921 5919 5917 5915 5914 5912 5910 5909 5907 5906 5904 5902 5901 5900 5899 5898 5898 5897 5896 5896 5895 5895 5895 5894 5894 5894 5894 5894 5894 5894 5893
5939 5939 5940 5940 5940 5940 5940 5940 5939 5938 5937 5936 5934 5933 5931 5929 5927 5924 5922 5921 5919 5917 5915 5914 5912 5910 5908 5907 5905 5903 5901 5900 5899 5899 5898 5896 5896 5895 5895 5895 5894 5894 5894 5893 5893 5893 5892 5892 5892
5938 5938 5939 5940 5940 5939 5939 5939 5940 5939 5938 5937 5936 5934 5932 5930 5928 5926 5924 5922 5920 5919 5917 5915 5913 5911 5910 5908 5906 5904 5902 5901 5900 5899 5898 5896 5896 5895 5895 5894 5894 5893 5893 5892 5892 5892 5891 5891 5890
5936 5937 5938 5938 5939 5938 5938 5938 5939 5939 5938 5938 5937 5935 5933 5931 5929 5927 5925 5923 5921 5919 5918 5916 5914 5913 5911 5909 5907 5905 5903 5902 5900 5899 5898 5897 5896 5895 5895 5894 5893 5893 5892 5891 5891 5890 5890 5889 5889
5934 5936 5936 5936 5936 5937 5937 5938 5938 5938 5937 5937 5936 5935 5934 5932 5930 5928 5926 5924 5922 5920 5919 5917 5915 5914 5912 5910 5908 5906 5904 5903 5901 5900 5898 5897 5896 5895 5894 5893 5893 5892 5891 5891 5890 5889 5889 5888 5887
5932 5934 5935 5935 5935 5935 5937 5937 5938 5937 5937 5936 5935 5935 5934 5933 5931 5929 5927 5924 5923 5920 5920 5918 5916 5915 5913 5911 5909 5907 5905 5904 5902 5900 5899 5897 5896 5895 5894 5893 5892 5891 5891 5890 5889 5888 5887 5887 5886
5930 5931 5932 5933 5934 5934 5935 5936 5938 5937 5936 5936 5935 5934 5934 5932 5931 5929 5927 5925 5924 5922 5921 5919 5917 5915 5914 5912 5910 5908 5906 5905 5903 5901 5899 5898 5896 5895 5894 5893 5892 5891 5890 5889 5888 5887 5886 5885 5884
5926 5928 5930 5931 5932 5933 5934 5934 5935 5936 5936 5935 5935 5934 5933 5932 5931 5929 5927 5926 5924 5923 5921 5919 5918 5916 5914 5912 5911 5909 5907 5905 5903 5901 5900 5898 5896 5895 5894 5893 5892 5890 5889 5888 5887 5885 5884 5883 5881
5922 5925 5927 5928 5929 5931 5931 5931 5933 5933 5933 5933 5933 5932 5931 5931 5930 5929 5927 5926 5924 5923 5921 5920 5918 5917 5915 5913 5911 5909 5908 5906 5904 5902 5900 5899 5897 5895 5894 5893 5891 5890 5889 5887 5885 5883 5882 5880 5879
5918 5921 5924 5925 5926 5927 5928 5928 5930 5930 5931 5931 5931 5930 5930 5929 5929 5928 5926 5925 5924 5923 5922 5920 5918 5917 5915 5913 5911 5910 5908 5906 5904 5902 5901 5899 5897 5895 5894 5892 5891 5889 5887 5886 5884 5882 5880 5878 5877
5913 5916 5920 5922 5923 5924 5924 5925 5926 5927 5928 5928 5928 5928 5928 5927 5927 5927 5926 5925 5924 5923 5921 5920 5918 5917 5915 5913 5911 5909 5908 5906 5904 5902 5901 5899 5897 5895 5893 5892 5890 5888 5886 5884 5882 5880 5878 5876 5874
5909 5912 5915 5917 5919 5920 5921 5922 5923 5924 5925 5926 5926 5926 5926 5926 5926 5926 5925 5924 5923 5922 5921 5920 5918 5916 5915 5913 5911 5909 5907 5905 5903 5902 5900 5898 5896 5894 5892 5891 5889 5886 5884 5882 5880 5878 5876 5874 5872
5905 5908 5910 5912 5914 5916 5917 5921 5921 5922 5923 5923 5923 5924 5924 5924 5925 5924 5923 5923 5922 5921 5920 5919 5917 5916 5914 5912 5910 5908 5906 5905 5903 5901 5899 5897 5895 5893 5891 5889 5887 5884 5882 5880 5878 5876 5874 5871 5869
5899 5902 5905 5908 5910 5912 5913 5918 5917 5919 5919 5920 5921 5921 5922 5922 5922 5922 5922 5921 5920 5920 5919 5918 5916 5915 5913 5911 5909 5908 5905 5903 5901 5900 5898 5895 5893 5891 5889 5887 5885 5882 5880 5877 5875 5873 5871 5869 5866